Weather History for Krakow, Poland

Change the Weather History Date:

Saturday, February 16, 2013

  Actual Average Record
Temperature  
Mean Temperature 34 °F -  
Max Temperature 35 °F 41 °F 59 °F (1998)
Min Temperature 32 °F 27 °F 8 °F (2008)
Degree Days  
Heating Degree Days 32    
Moisture  
Dew Point 31 °F    
Average Humidity 91    
Maximum Humidity 100    
Minimum Humidity 74    
Precipitation  
Precipitation 0.00 in 0.04 in - ()
Sea Level Pressure  
Sea Level Pressure 30.17 in    
Wind  
Wind Speed 5 mph ()    
Max Wind Speed 7 mph    
Max Gust Speed -    
Visibility 3.0 miles    
Events Snow    
Averages and records for this station are not official NWS values.
T = Trace of Precipitation, MM = Missing Value Source: Averaged Metar Reports

Daily Weather History Graph

Daily Weather History Graph

Search for Another Location

Airport:

Trip Planner

Search our weather history database for the weather conditions in past years. The results will help you decide how hot, cold, wet, or windy it might be!

Date:

Astronomy

Feb. 16, 2013 Rise Set
Actual Time 6:49 AM CET 5:00 PM CET
Civil Twilight 6:16 AM CET 5:34 PM CET
Nautical Twilight 5:38 AM CET 6:12 PM CET
Astronomical Twilight 5:01 AM CET 6:49 PM CET
Moon 9:08 AM CET (2/16) No Moon Set
Length of Visible Light 11h 17m
Length of Day
10h 11m
Waxing Crescent, 37% of the Moon is Illuminated
Feb 16
Waxing Crescent
Feb 17
First Quarter
Feb 25
Full
Mar 4
Last Quarter
Mar 11
New

Hourly Weather History & Observations

Time (CET) Temp. Windchill Dew Point Humidity Pressure Visibility Wind Dir Wind Speed Gust Speed Precip Events Conditions
12:00 AM 32.0 °F 28.7 °F 32.0 °F 100% 30.12 in 1.9 mi ENE 3.5 mph - N/A Snow Light Snow
12:30 AM 32.0 °F 27.5 °F 32.0 °F 100% 30.12 in 1.9 mi ENE 4.6 mph - N/A Snow Light Snow
1:00 AM 33 °F - 32 °F 94% 30.18 in 2 mi NE 4.5 mph - - Snow Light Snow
1:00 AM 32.0 °F 27.5 °F 32.0 °F 100% 30.12 in 1.9 mi ENE 4.6 mph - N/A Snow Light Snow
1:30 AM 32.0 °F 28.7 °F 32.0 °F 100% 30.12 in 1.9 mi ENE 3.5 mph - N/A Snow Light Snow
2:00 AM 32.0 °F 28.7 °F 32.0 °F 100% 30.12 in 1.6 mi ENE 3.5 mph - N/A Snow Light Snow
2:30 AM 32.0 °F 28.7 °F 32.0 °F 100% 30.12 in 1.6 mi NE 3.5 mph - N/A Snow Light Snow
3:00 AM 32.0 °F 28.7 °F 32.0 °F 100% 30.12 in 1.6 mi NE 3.5 mph - N/A Snow Light Snow
3:30 AM 32.0 °F 28.7 °F 26.6 °F 80% 30.12 in 1.6 mi NE 3.5 mph - N/A Snow Light Snow
4:00 AM 32 °F - 32 °F 98% 30.18 in 2 mi ENE 6.7 mph - - Snow Light Snow
4:00 AM 32.0 °F 27.5 °F 32.0 °F 100% 30.12 in 1.6 mi NE 4.6 mph - N/A   Mostly Cloudy
4:30 AM 32.0 °F 28.7 °F 32.0 °F 100% 30.12 in 1.6 mi NE 3.5 mph - N/A Snow Light Snow
5:00 AM 32.0 °F 28.7 °F 32.0 °F 100% 30.12 in 1.9 mi NE 3.5 mph - N/A Snow Light Snow
5:30 AM 32.0 °F 28.7 °F 32.0 °F 100% 30.12 in 1.9 mi ENE 3.5 mph - N/A Snow Light Snow
6:00 AM 32.0 °F - 32.0 °F 100% 30.12 in 1.9 mi Calm Calm - N/A Snow Light Snow
6:30 AM 32.0 °F 28.7 °F 32.0 °F 100% 30.12 in 1.6 mi NE 3.5 mph - N/A Snow Light Snow
7:00 AM 32 °F - 32 °F 99% 30.20 in 2 mi ENE 6.7 mph - - Snow Light Snow
7:00 AM 32.0 °F 26.4 °F 32.0 °F 100% 30.15 in 1.6 mi ENE 5.8 mph - N/A Snow Light Snow
7:30 AM 32.0 °F 27.5 °F 32.0 °F 100% 30.15 in 1.6 mi NNE 4.6 mph - N/A Snow Light Snow
8:00 AM 32.0 °F 26.4 °F 32.0 °F 100% 30.15 in 1.1 mi ENE 5.8 mph - N/A Snow Light Snow
8:30 AM 32.0 °F 26.4 °F 32.0 °F 100% 30.15 in 1.1 mi ENE 5.8 mph - N/A Snow Light Snow
9:00 AM 32.0 °F 25.6 °F 32.0 °F 100% 30.15 in 1.2 mi NE 6.9 mph - N/A Snow Light Snow
9:30 AM 32.0 °F 26.4 °F 30.2 °F 93% 30.15 in 1.6 mi ENE 5.8 mph - N/A Snow Light Snow
10:00 AM 33 °F - 31 °F 90% 30.23 in 2 mi NE 6.7 mph - - Snow Light Snow
10:00 AM 32.0 °F 26.4 °F 32.0 °F 100% 30.18 in 1.6 mi ENE 5.8 mph - N/A Snow Light Snow
10:30 AM 32.0 °F 25.6 °F 30.2 °F 93% 30.18 in 1.9 mi ENE 6.9 mph - N/A Snow Light Snow
11:00 AM 33.8 °F 28.6 °F 30.2 °F 87% 30.18 in 2.5 mi ENE 5.8 mph - N/A   Mostly Cloudy
11:30 AM 35.6 °F 30.7 °F 30.2 °F 81% 30.18 in 3.1 mi ENE 5.8 mph - N/A   Mostly Cloudy
12:00 PM 35.6 °F 30.7 °F 30.2 °F 81% 30.18 in 3.1 mi ENE 5.8 mph - N/A   Mostly Cloudy
12:30 PM 35.6 °F 29.9 °F 30.2 °F 81% 30.18 in 3.7 mi ENE 6.9 mph - N/A   Mostly Cloudy
1:00 PM 35 °F - 31 °F 78% 30.22 in 5 mi ENE 6.7 mph - -   Mist
1:00 PM 35.6 °F 29.9 °F 30.2 °F 81% 30.15 in 5.0 mi East 6.9 mph - N/A   Mostly Cloudy
1:30 PM 35.6 °F 30.7 °F 30.2 °F 81% 30.18 in 5.0 mi ENE 5.8 mph - N/A   Mostly Cloudy
2:00 PM 35.6 °F 29.9 °F 30.2 °F 81% 30.18 in 5.0 mi ENE 6.9 mph - N/A   Mostly Cloudy
2:30 PM 35.6 °F 29.9 °F 30.2 °F 81% 30.18 in 5.0 mi ENE 6.9 mph - N/A   Mostly Cloudy
3:00 PM 35.6 °F 29.9 °F 30.2 °F 81% 30.18 in 5.0 mi ENE 6.9 mph - N/A   Mostly Cloudy
3:30 PM 35.6 °F 30.7 °F 30.2 °F 81% 30.18 in 5.0 mi ENE 5.8 mph - N/A   Mostly Cloudy
4:00 PM 35 °F - 30 °F 74% 30.22 in 5 mi ENE 6.7 mph - -   Mist
4:00 PM 35.6 °F 30.7 °F 30.2 °F 81% 30.18 in 5.0 mi East 5.8 mph - N/A   Mostly Cloudy
4:30 PM 35.6 °F 30.7 °F 30.2 °F 81% 30.18 in 5.0 mi East 5.8 mph - N/A   Mostly Cloudy
5:00 PM 33.8 °F 29.6 °F 30.2 °F 87% 30.18 in 5.0 mi East 4.6 mph - N/A   Mostly Cloudy
5:30 PM 33.8 °F 29.6 °F 30.2 °F 87% 30.18 in 5.0 mi East 4.6 mph - N/A   Mostly Cloudy
6:00 PM 33.8 °F 30.8 °F 30.2 °F 87% 30.18 in 5.0 mi NE 3.5 mph - N/A   Mostly Cloudy
6:30 PM 33.8 °F 28.6 °F 30.2 °F 87% 30.21 in 3.7 mi NE 5.8 mph - N/A   Mostly Cloudy
7:00 PM 33 °F - 30 °F 83% 30.25 in 4 mi NE 6.7 mph - -   Haze
7:00 PM 33.8 °F 28.6 °F 28.4 °F 81% 30.18 in 3.7 mi ENE 5.8 mph - N/A   Mostly Cloudy
7:30 PM 33.8 °F 28.6 °F 30.2 °F 87% 30.18 in 3.7 mi ENE 5.8 mph - N/A   Mostly Cloudy
8:00 PM 32.0 °F 26.4 °F 30.2 °F 93% 30.18 in 3.7 mi NE 5.8 mph - N/A   Mostly Cloudy
8:30 PM 32.0 °F 27.5 °F 30.2 °F 93% 30.18 in 3.7 mi NE 4.6 mph - N/A   Mostly Cloudy
9:00 PM 32.0 °F 26.4 °F 30.2 °F 93% 30.21 in 3.7 mi NE 5.8 mph - N/A   Mostly Cloudy
9:30 PM 32.0 °F 27.5 °F 30.2 °F 93% 30.21 in 3.7 mi NE 4.6 mph - N/A   Mostly Cloudy
10:00 PM 32 °F - 30 °F 87% 30.27 in 4 mi NE 6.7 mph - -   Mist
10:00 PM 32.0 °F 26.4 °F 30.2 °F 93% 30.21 in 3.7 mi NE 5.8 mph - N/A   Mostly Cloudy
10:30 PM 32.0 °F 27.5 °F 28.4 °F 87% 30.21 in 3.7 mi NE 4.6 mph - N/A   Mostly Cloudy
11:00 PM 32.0 °F 26.4 °F 28.4 °F 87% 30.21 in 3.7 mi ENE 5.8 mph - N/A   Mostly Cloudy
11:30 PM 32.0 °F 26.4 °F 30.2 °F 93% 30.21 in 3.7 mi NE 5.8 mph - N/A   Mostly Cloudy